Location: Southlake
(32.9412°N, 97.1342°W)
Time: 02:47:08
(UTC+00:00)

BlueWalker 3 - Visible Passes

Search period start: 07 December 2022 00:00
Search period end: 17 December 2022 00:00
Orbit: 501 x 518 km, 53.2° (Epoch: 06 December)

Date Brightness Start Highest point End Pass type
(mag) Time Alt. Az. Time Alt. Az. Time Alt. Az.
09 Dec 4.5 01:25:41 10° NNW 01:26:08 13° NNW 01:26:08 13° NNW visible
10 Dec 3.5 01:07:13 10° NNW 01:09:06 24° N 01:09:06 24° N visible
11 Dec 2.3 00:48:46 10° NNW 00:52:21 41° NE 00:52:21 41° NE visible
12 Dec 2.2 00:30:19 10° NNW 00:34:04 45° NE 00:36:00 24° ESE visible
12 Dec 5.1 02:10:03 10° W 02:10:56 13° W 02:10:56 13° W visible
13 Dec 2.1 00:11:51 10° NNW 00:15:38 49° NE 00:19:24 10° ESE visible
13 Dec 4.9 01:51:49 10° W 01:53:56 14° WSW 01:55:15 12° SW visible
13 Dec 2.1 23:53:24 10° NW 23:57:13 53° NE 00:01:00 10° ESE visible
14 Dec 5.1 01:33:38 10° W 01:35:28 13° WSW 01:37:19 10° SSW visible
15 Dec 5.2 01:15:29 10° W 01:17:01 12° WSW 01:18:31 10° SW visible
16 Dec 5.4 00:57:27 10° WSW 00:58:32 11° WSW 00:59:36 10° SW visible
